TimeCDT,TemperatureF,Dew PointF,Humidity,Sea Level PressureIn,VisibilityMPH,Wind Direction,Wind SpeedMPH,Gust SpeedMPH,PrecipitationIn,Events,Conditions,WindDirDegrees,DateUTC
12:53 AM,75.0,70.0,84,30.05,9.0,NW,3.5,-,N/A,,Clear,320,2013-09-12 05:53:00
1:53 AM,72.0,69.1,91,30.05,7.0,Calm,Calm,-,N/A,,Clear,0,2013-09-12 06:53:00
2:53 AM,72.0,69.1,91,30.04,6.0,Calm,Calm,-,N/A,,Clear,0,2013-09-12 07:53:00
3:53 AM,71.1,68.0,90,30.04,6.0,Calm,Calm,-,N/A,,Clear,0,2013-09-12 08:53:00
4:53 AM,70.0,68.0,93,30.04,5.0,Calm,Calm,-,N/A,,Clear,0,2013-09-12 09:53:00
5:53 AM,70.0,68.0,93,30.04,5.0,Calm,Calm,-,N/A,,Clear,0,2013-09-12 10:53:00
6:53 AM,70.0,66.9,90,30.05,5.0,Calm,Calm,-,N/A,,Clear,0,2013-09-12 11:53:00
7:53 AM,72.0,69.1,91,30.06,4.0,Calm,Calm,-,N/A,,Clear,0,2013-09-12 12:53:00
8:53 AM,78.1,70.0,76,30.06,7.0,Calm,Calm,-,N/A,,Clear,0,2013-09-12 13:53:00
9:53 AM,82.9,71.1,67,30.06,8.0,Calm,Calm,-,N/A,,Clear,0,2013-09-12 14:53:00
10:53 AM,89.1,70.0,53,30.06,10.0,North,-9999.0,-,N/A,,Clear,0,2013-09-12 15:53:00
11:53 AM,91.0,70.0,50,30.04,10.0,NW,6.9,-,N/A,,Clear,310,2013-09-12 16:53:00
12:53 PM,93.9,68.0,43,30.01,10.0,Variable,3.5,-,N/A,,Clear,0,2013-09-12 17:53:00
1:53 PM,95.0,66.9,40,29.99,10.0,Variable,5.8,-,N/A,Thunderstorm,Partly Cloudy,0,2013-09-12 18:53:00
2:11 PM,89.6,68.0,49,30.01,10.0,NW,13.8,21.9,N/A,Thunderstorm,Partly Cloudy,320,2013-09-12 19:11:00
2:40 PM,87.8,69.8,55,30.01,10.0,Variable,4.6,-,N/A,Thunderstorm,Mostly Cloudy,0,2013-09-12 19:40:00
2:53 PM,91.9,68.0,45,29.98,10.0,ENE,8.1,-,N/A,Thunderstorm,Mostly Cloudy,60,2013-09-12 19:53:00
3:01 PM,91.4,68.0,46,30.00,10.0,NE,5.8,-,N/A,,Scattered Clouds,50,2013-09-12 20:01:00
3:53 PM,93.0,66.9,42,29.95,10.0,Calm,Calm,-,N/A,Thunderstorm,Clear,0,2013-09-12 20:53:00
4:29 PM,91.4,64.4,41,29.97,10.0,NE,10.4,-,N/A,,Scattered Clouds,40,2013-09-12 21:29:00
4:49 PM,89.6,64.4,43,29.97,10.0,NNE,10.4,18.4,N/A,Thunderstorm,Thunderstorm,20,2013-09-12 21:49:00
4:53 PM,89.1,64.0,43,29.95,10.0,NNE,11.5,17.3,N/A,Thunderstorm,Thunderstorm,30,2013-09-12 21:53:00
5:18 PM,87.8,66.2,49,29.97,10.0,Calm,Calm,-,N/A,,Mostly Cloudy,0,2013-09-12 22:18:00
5:53 PM,89.1,66.0,46,29.95,10.0,Calm,Calm,-,N/A,,Clear,0,2013-09-12 22:53:00
6:53 PM,82.9,73.9,74,29.96,9.0,SW,4.6,-,N/A,,Clear,230,2013-09-12 23:53:00
7:53 PM,80.1,72.0,76,29.97,10.0,Calm,Calm,-,N/A,,Clear,0,2013-09-13 00:53:00
8:53 PM,78.1,71.1,79,29.98,9.0,Calm,Calm,-,N/A,,Clear,0,2013-09-13 01:53:00
9:53 PM,75.9,71.1,85,29.98,9.0,Calm,Calm,-,N/A,,Clear,0,2013-09-13 02:53:00
10:53 PM,73.9,70.0,87,29.98,8.0,Calm,Calm,-,N/A,,Clear,0,2013-09-13 03:53:00
11:53 PM,73.0,69.1,87,29.99,7.0,Calm,Calm,-,N/A,,Clear,0,2013-09-13 04:53:00